Time,TemperatureF,DewpointF,PressureIn,WindDirection,WindDirectionDegrees,WindSpeedMPH,WindSpeedGustMPH,Humidity,HourlyPrecipIn,Conditions,Clouds,dailyrainin,SoftwareType,DateUTC
2013-08-16 00:01:00,66.4,52.5,30.13,SSW,195,0.0,0.0,61,0.00,OVC,,0.00,WeatherDisplay:10.37,2013-08-16 05:01:00,
2013-08-16 00:06:00,66.3,52.4,30.13,SSW,195,0.0,0.0,61,0.00,OVC,,0.00,WeatherDisplay:10.37,2013-08-16 05:06:00,
2013-08-16 00:11:00,66.0,52.2,30.13,SSW,195,0.0,0.0,61,0.00,OVC,,0.00,WeatherDisplay:10.37,2013-08-16 05:11:00,
2013-08-16 00:20:00,66.0,52.2,30.13,SSW,195,0.0,0.3,61,0.00,OVC,,0.00,WeatherDisplay:10.37,2013-08-16 05:20:00,
2013-08-16 00:25:00,66.1,51.8,30.13,SSW,195,3.5,3.5,60,0.00,OVC,,0.00,WeatherDisplay:10.37,2013-08-16 05:25:00,
2013-08-16 00:30:00,66.3,52.0,30.14,SSW,195,2.0,2.0,60,0.00,OVC,,0.00,WeatherDisplay:10.37,2013-08-16 05:30:00,
2013-08-16 00:35:00,66.3,52.0,30.14,SSW,195,2.3,2.3,60,0.00,OVC,,0.00,WeatherDisplay:10.37,2013-08-16 05:35:00,
2013-08-16 00:40:00,66.1,52.3,30.14,SSW,195,2.3,2.3,61,0.00,OVC,,0.00,WeatherDisplay:10.37,2013-08-16 05:40:00,
2013-08-16 00:45:00,66.1,52.3,30.14,SSW,195,2.3,2.3,61,0.00,OVC,,0.00,WeatherDisplay:10.37,2013-08-16 05:45:00,
2013-08-16 00:50:00,66.0,52.2,30.14,SSW,195,2.3,0.0,61,0.00,OVC,,0.00,WeatherDisplay:10.37,2013-08-16 05:50:00,
2013-08-16 00:55:00,66.0,52.6,30.14,SSW,195,0.0,0.1,62,0.00,OVC,,0.00,WeatherDisplay:10.37,2013-08-16 05:55:00,
2013-08-16 01:00:00,66.0,52.6,30.14,SSW,195,3.5,3.5,62,0.00,OVC,,0.00,WeatherDisplay:10.37,2013-08-16 06:00:00,
2013-08-16 01:05:00,65.8,52.4,30.14,SSW,195,0.0,0.0,62,0.00,OVC,,0.00,WeatherDisplay:10.37,2013-08-16 06:05:00,
2013-08-16 01:10:00,65.6,52.7,30.14,SSW,195,1.1,0.0,63,0.00,OVC,,0.00,WeatherDisplay:10.37,2013-08-16 06:10:00,
2013-08-16 01:15:00,65.6,52.7,30.13,SSW,195,2.3,2.3,63,0.00,OVC,,0.00,WeatherDisplay:10.37,2013-08-16 06:15:00,
2013-08-16 01:20:00,65.5,52.1,30.13,SSW,195,3.5,3.5,62,0.00,OVC,,0.00,WeatherDisplay:10.37,2013-08-16 06:20:00,
2013-08-16 01:25:00,65.6,52.7,30.13,SSW,195,1.1,0.0,63,0.00,OVC,,0.00,WeatherDisplay:10.37,2013-08-16 06:25:00,
2013-08-16 01:30:00,65.5,53.0,30.13,SSW,195,0.0,0.0,64,0.00,OVC,,0.00,WeatherDisplay:10.37,2013-08-16 06:30:00,
2013-08-16 01:35:00,65.2,52.7,30.13,SSW,195,0.0,0.0,64,0.00,OVC,,0.00,WeatherDisplay:10.37,2013-08-16 06:35:00,
2013-08-16 01:40:00,64.7,52.7,30.13,SSW,195,1.1,0.0,65,0.00,OVC,,0.00,WeatherDisplay:10.37,2013-08-16 06:40:00,
2013-08-16 01:45:00,64.3,52.7,30.13,SSW,195,0.0,0.0,66,0.00,OVC,,0.00,WeatherDisplay:10.37,2013-08-16 06:45:00,
2013-08-16 01:50:00,64.2,52.6,30.13,SSW,195,1.1,1.1,66,0.00,OVC,,0.00,WeatherDisplay:10.37,2013-08-16 06:50:00,
2013-08-16 01:55:00,64.0,52.8,30.13,SSW,195,0.0,0.0,67,0.00,OVC,,0.00,WeatherDisplay:10.37,2013-08-16 06:55:00,
2013-08-16 02:00:00,63.9,52.7,30.13,SSW,195,0.0,0.0,67,0.00,OVC,,0.00,WeatherDisplay:10.37,2013-08-16 07:00:00,
2013-08-16 02:05:00,63.7,52.5,30.14,SSW,195,2.3,2.3,67,0.00,OVC,,0.00,WeatherDisplay:10.37,2013-08-16 07:05:00,
2013-08-16 02:10:00,63.7,52.5,30.14,SSW,195,2.3,0.0,67,0.00,OVC,,0.00,WeatherDisplay:10.37,2013-08-16 07:10:00,
2013-08-16 02:15:00,63.9,52.7,30.14,SSW,195,0.0,0.0,67,0.00,OVC,,0.00,WeatherDisplay:10.37,2013-08-16 07:15:00,
2013-08-16 02:20:00,63.9,52.7,30.14,SSW,195,1.1,0.0,67,0.00,OVC,,0.00,WeatherDisplay:10.37,2013-08-16 07:20:00,
2013-08-16 02:25:00,63.7,52.5,30.14,SSW,195,0.0,0.0,67,0.00,OVC,,0.00,WeatherDisplay:10.37,2013-08-16 07:25:00,
2013-08-16 02:30:00,63.5,52.7,30.14,SSW,195,1.1,0.0,68,0.00,OVC,,0.00,WeatherDisplay:10.37,2013-08-16 07:30:00,
2013-08-16 02:35:00,63.4,53.0,30.13,SSW,195,0.0,0.1,69,0.00,OVC,,0.00,WeatherDisplay:10.37,2013-08-16 07:35:00,
2013-08-16 02:40:00,63.2,53.3,30.13,SSW,195,3.5,3.5,70,0.00,OVC,,0.00,WeatherDisplay:10.37,2013-08-16 07:40:00,
2013-08-16 02:45:00,63.1,53.2,30.13,SSW,195,2.0,2.0,70,0.00,OVC,,0.00,WeatherDisplay:10.37,2013-08-16 07:45:00,
2013-08-16 02:50:00,62.9,53.4,30.13,SSW,195,0.0,0.0,71,0.00,OVC,,0.00,WeatherDisplay:10.37,2013-08-16 07:50:00,
2013-08-16 02:55:00,62.7,53.5,30.13,SSW,195,0.0,0.0,72,0.00,OVC,,0.00,WeatherDisplay:10.37,2013-08-16 07:55:00,
2013-08-16 03:00:00,62.4,53.6,30.13,SSW,201,3.5,0.0,73,0.00,OVC,,0.00,WeatherDisplay:10.37,2013-08-16 08:00:00,
2013-08-16 03:05:00,62.3,53.9,30.13,SSW,210,0.0,0.0,74,0.00,SCT,,0.00,WeatherDisplay:10.37,2013-08-16 08:05:00,
2013-08-16 03:10:00,62.1,54.1,30.13,SSW,211,1.1,1.1,75,0.00,SCT,,0.00,WeatherDisplay:10.37,2013-08-16 08:10:00,
2013-08-16 03:15:00,62.0,54.3,30.13,SW,217,2.3,0.0,76,0.00,SCT,,0.00,WeatherDisplay:10.37,2013-08-16 08:15:00,
2013-08-16 03:20:00,61.8,54.2,30.13,SW,218,1.1,0.0,76,0.00,SCT,,0.00,WeatherDisplay:10.37,2013-08-16 08:20:00,
2013-08-16 03:25:00,61.5,54.2,30.13,SW,218,0.0,0.1,77,0.00,SCT,,0.00,WeatherDisplay:10.37,2013-08-16 08:25:00,
2013-08-16 03:30:00,61.3,54.0,30.13,SW,218,1.1,1.1,77,0.00,SCT,,0.00,WeatherDisplay:10.37,2013-08-16 08:30:00,
2013-08-16 03:35:00,61.2,54.3,30.13,SW,218,1.1,1.1,78,0.00,CLR,,0.00,WeatherDisplay:10.37,2013-08-16 08:35:00,
2013-08-16 03:40:00,61.0,54.1,30.13,SW,218,0.0,0.1,78,0.00,CLR,,0.00,WeatherDisplay:10.37,2013-08-16 08:40:00,
2013-08-16 03:45:00,60.9,54.3,30.13,SW,218,0.0,0.0,79,0.00,CLR,,0.00,WeatherDisplay:10.37,2013-08-16 08:45:00,
2013-08-16 03:50:00,60.7,54.1,30.13,SW,218,0.0,0.0,79,0.00,CLR,,0.00,WeatherDisplay:10.37,2013-08-16 08:50:00,
2013-08-16 03:55:00,60.5,54.3,30.13,SW,218,0.0,0.1,80,0.00,CLR,,0.00,WeatherDisplay:10.37,2013-08-16 08:55:00,
2013-08-16 04:00:00,60.4,54.2,30.13,SW,219,0.0,0.0,80,0.00,CLR,,0.00,WeatherDisplay:10.37,2013-08-16 09:00:00,
2013-08-16 04:05:00,60.2,54.0,30.13,SW,220,0.0,0.5,80,0.00,CLR,,0.00,WeatherDisplay:10.37,2013-08-16 09:05:00,
2013-08-16 04:10:00,60.2,54.3,30.13,SW,220,0.0,0.0,81,0.00,CLR,,0.00,WeatherDisplay:10.37,2013-08-16 09:10:00,
2013-08-16 04:15:00,60.1,54.2,30.13,SW,221,1.1,1.1,81,0.00,CLR,,0.00,WeatherDisplay:10.37,2013-08-16 09:15:00,
2013-08-16 04:20:00,59.9,54.4,30.13,SW,221,0.0,0.0,82,0.00,CLR,,0.00,WeatherDisplay:10.37,2013-08-16 09:20:00,
2013-08-16 04:25:00,59.8,54.3,30.13,SW,221,0.0,0.1,82,0.00,CLR,,0.00,WeatherDisplay:10.37,2013-08-16 09:25:00,
2013-08-16 04:30:00,59.6,54.1,30.14,SW,221,1.1,0.0,82,0.00,CLR,,0.00,WeatherDisplay:10.37,2013-08-16 09:30:00,
2013-08-16 04:35:00,59.5,54.0,30.14,SW,221,0.0,0.0,82,0.00,CLR,,0.00,WeatherDisplay:10.37,2013-08-16 09:35:00,
2013-08-16 04:40:00,59.3,54.1,30.14,SW,221,1.1,0.0,83,0.00,CLR,,0.00,WeatherDisplay:10.37,2013-08-16 09:40:00,
2013-08-16 04:45:00,59.0,53.8,30.14,SW,220,1.1,1.1,83,0.00,CLR,,0.00,WeatherDisplay:10.37,2013-08-16 09:45:00,
2013-08-16 04:50:00,59.0,54.2,30.14,SW,220,0.0,0.0,84,0.00,CLR,,0.00,WeatherDisplay:10.37,2013-08-16 09:50:00,
2013-08-16 04:55:00,58.9,54.1,30.14,SW,220,0.0,0.0,84,0.00,CLR,,0.00,WeatherDisplay:10.37,2013-08-16 09:55:00,
2013-08-16 05:00:00,58.7,53.9,30.14,SW,221,1.1,0.0,84,0.00,CLR,,0.00,WeatherDisplay:10.37,2013-08-16 10:00:00,
2013-08-16 05:05:00,58.7,53.9,30.14,SW,221,0.0,0.0,84,0.00,CLR,,0.00,WeatherDisplay:10.37,2013-08-16 10:05:00,
2013-08-16 05:10:00,58.6,54.1,30.14,SW,221,0.0,0.0,85,0.00,CLR,,0.00,WeatherDisplay:10.37,2013-08-16 10:10:00,
2013-08-16 05:15:00,58.4,53.9,30.14,SW,221,0.0,0.2,85,0.00,CLR,,0.00,WeatherDisplay:10.37,2013-08-16 10:15:00,
2013-08-16 05:20:00,58.4,53.9,30.14,SW,221,0.0,0.0,85,0.00,CLR,,0.00,WeatherDisplay:10.37,2013-08-16 10:20:00,
2013-08-16 05:25:00,58.3,54.1,30.14,SW,221,0.0,0.0,86,0.00,CLR,,0.00,WeatherDisplay:10.37,2013-08-16 10:25:00,
2013-08-16 05:30:00,58.3,54.1,30.15,SW,221,0.0,0.0,86,0.00,CLR,,0.00,WeatherDisplay:10.37,2013-08-16 10:30:00,
2013-08-16 05:35:00,58.3,54.1,30.15,SW,221,2.3,0.0,86,0.00,CLR,,0.00,WeatherDisplay:10.37,2013-08-16 10:35:00,
2013-08-16 05:40:00,58.3,54.1,30.15,SW,221,0.0,0.0,86,0.00,CLR,,0.00,WeatherDisplay:10.37,2013-08-16 10:40:00,
2013-08-16 05:45:00,58.1,53.9,30.15,SW,221,0.0,0.0,86,0.00,CLR,,0.00,WeatherDisplay:10.37,2013-08-16 10:45:00,
2013-08-16 05:50:00,58.0,53.8,30.15,SW,220,0.0,0.0,86,0.00,CLR,,0.00,WeatherDisplay:10.37,2013-08-16 10:50:00,
2013-08-16 05:55:00,57.8,54.0,30.15,SW,220,0.0,0.0,87,0.00,CLR,,0.00,WeatherDisplay:10.37,2013-08-16 10:55:00,
2013-08-16 06:00:00,57.6,53.8,30.16,SW,221,0.0,0.0,87,0.00,CLR,,0.00,WeatherDisplay:10.37,2013-08-16 11:00:00,
2013-08-16 06:05:00,57.6,53.8,30.16,SW,221,0.0,0.0,87,0.00,CLR,,0.00,WeatherDisplay:10.37,2013-08-16 11:05:00,
2013-08-16 06:10:00,57.5,54.0,30.16,SW,221,0.0,0.0,88,0.00,CLR,,0.00,WeatherDisplay:10.37,2013-08-16 11:10:00,
2013-08-16 06:15:00,57.5,54.0,30.16,SW,221,0.0,0.0,88,0.00,CLR,,0.00,WeatherDisplay:10.37,2013-08-16 11:15:00,
2013-08-16 06:20:00,57.5,54.0,30.16,SW,221,0.0,0.0,88,0.00,CLR,,0.00,WeatherDisplay:10.37,2013-08-16 11:20:00,
2013-08-16 06:25:00,57.5,54.0,30.16,SW,220,0.0,0.0,88,0.00,CLR,,0.00,WeatherDisplay:10.37,2013-08-16 11:25:00,
2013-08-16 06:30:00,57.5,54.0,30.16,SW,221,1.1,1.1,88,0.00,CLR,,0.00,WeatherDisplay:10.37,2013-08-16 11:30:00,
2013-08-16 06:35:00,57.5,54.3,30.16,SW,221,0.0,0.0,89,0.00,CLR,,0.00,WeatherDisplay:10.37,2013-08-16 11:35:00,
2013-08-16 06:40:00,57.6,54.4,30.16,SW,221,1.1,1.1,89,0.00,CLR,,0.00,WeatherDisplay:10.37,2013-08-16 11:40:00,
2013-08-16 06:45:00,57.8,54.6,30.16,SW,220,0.0,0.1,89,0.00,CLR,,0.00,WeatherDisplay:10.37,2013-08-16 11:45:00,
2013-08-16 06:50:00,58.0,54.8,30.16,SW,221,0.0,0.0,89,0.00,CLR,,0.00,WeatherDisplay:10.37,2013-08-16 11:50:00,
2013-08-16 06:55:00,58.1,54.9,30.16,SW,220,0.0,0.0,89,0.00,CLR,,0.00,WeatherDisplay:10.37,2013-08-16 11:55:00,
2013-08-16 07:00:00,58.4,55.2,30.16,SW,221,0.0,0.0,89,0.00,CLR,,0.00,WeatherDisplay:10.37,2013-08-16 12:00:00,
2013-08-16 07:05:00,58.6,55.1,30.17,SW,221,0.0,0.0,88,0.00,CLR,,0.00,WeatherDisplay:10.37,2013-08-16 12:05:00,
2013-08-16 07:10:00,58.7,55.2,30.17,SW,221,0.0,0.0,88,0.00,CLR,,0.00,WeatherDisplay:10.37,2013-08-16 12:10:00,
2013-08-16 07:15:00,59.0,55.4,30.17,SW,220,0.0,0.0,88,0.00,CLR,,0.00,WeatherDisplay:10.37,2013-08-16 12:15:00,
2013-08-16 07:20:00,59.3,55.4,30.17,SW,221,0.0,0.5,87,0.00,CLR,,0.00,WeatherDisplay:10.37,2013-08-16 12:20:00,
2013-08-16 07:25:00,59.5,55.6,30.17,SW,221,0.0,0.0,87,0.00,CLR,,0.00,WeatherDisplay:10.37,2013-08-16 12:25:00,
2013-08-16 07:30:00,59.8,55.6,30.17,SW,221,0.0,0.0,86,0.00,CLR,,0.00,WeatherDisplay:10.37,2013-08-16 12:30:00,
2013-08-16 07:35:00,60.2,56.0,30.18,SW,221,0.0,0.0,86,0.00,CLR,,0.00,WeatherDisplay:10.37,2013-08-16 12:35:00,
2013-08-16 07:40:00,60.7,56.5,30.18,SW,221,0.0,0.0,86,0.00,CLR,,0.00,WeatherDisplay:10.37,2013-08-16 12:40:00,
2013-08-16 07:45:00,61.2,56.3,30.18,SW,220,1.1,0.0,84,0.00,CLR,,0.00,WeatherDisplay:10.37,2013-08-16 12:45:00,
2013-08-16 07:50:00,61.8,56.6,30.18,SW,220,1.1,0.0,83,0.00,CLR,,0.00,WeatherDisplay:10.37,2013-08-16 12:50:00,
2013-08-16 07:55:00,62.3,56.7,30.18,SW,221,0.0,0.0,82,0.00,CLR,,0.00,WeatherDisplay:10.37,2013-08-16 12:55:00,
2013-08-16 08:00:00,62.7,56.8,30.18,SW,220,1.1,0.0,81,0.00,CLR,,0.00,WeatherDisplay:10.37,2013-08-16 13:00:00,
2013-08-16 08:05:00,63.2,56.9,30.18,SW,221,2.3,0.0,80,0.00,CLR,,0.00,WeatherDisplay:10.37,2013-08-16 13:05:00,
2013-08-16 08:10:00,63.7,57.1,30.18,SW,221,1.1,0.0,79,0.00,CLR,,0.00,WeatherDisplay:10.37,2013-08-16 13:10:00,
2013-08-16 08:15:00,64.0,57.0,30.18,SW,221,0.0,0.0,78,0.00,CLR,,0.00,WeatherDisplay:10.37,2013-08-16 13:15:00,
2013-08-16 08:20:00,64.3,57.3,30.18,SW,221,0.0,0.0,78,0.00,CLR,,0.00,WeatherDisplay:10.37,2013-08-16 13:20:00,
2013-08-16 08:25:00,64.7,57.3,30.18,SW,221,3.5,0.0,77,0.00,CLR,,0.00,WeatherDisplay:10.37,2013-08-16 13:25:00,
2013-08-16 08:30:00,65.0,57.6,30.18,SW,221,0.0,0.0,77,0.00,CLR,,0.00,WeatherDisplay:10.37,2013-08-16 13:30:00,
2013-08-16 08:35:00,65.6,57.8,30.19,SW,223,0.0,0.0,76,0.00,CLR,,0.00,WeatherDisplay:10.37,2013-08-16 13:35:00,
2013-08-16 08:40:00,66.1,57.9,30.19,SW,229,1.1,1.6,75,0.00,CLR,,0.00,WeatherDisplay:10.37,2013-08-16 13:40:00,
2013-08-16 08:45:00,66.6,58.1,30.19,SW,230,3.5,3.5,74,0.00,CLR,,0.00,WeatherDisplay:10.37,2013-08-16 13:45:00,
2013-08-16 08:50:00,67.3,58.7,30.18,SW,230,0.0,0.0,74,0.00,CLR,,0.00,WeatherDisplay:10.37,2013-08-16 13:50:00,
2013-08-16 08:55:00,67.9,58.9,30.18,SW,230,1.1,0.0,73,0.00,CLR,,0.00,WeatherDisplay:10.37,2013-08-16 13:55:00,
2013-08-16 09:00:00,68.3,58.5,30.18,SW,230,1.1,1.1,71,0.00,CLR,,0.00,WeatherDisplay:10.37,2013-08-16 14:00:00,
2013-08-16 09:05:00,68.4,58.6,30.19,NNE,12,1.1,0.0,71,0.00,CLR,,0.00,WeatherDisplay:10.37,2013-08-16 14:05:00,
2013-08-16 09:10:00,68.8,59.0,30.19,WSW,246,1.0,1.0,71,0.00,CLR,,0.00,WeatherDisplay:10.37,2013-08-16 14:10:00,
2013-08-16 09:15:00,69.1,58.9,30.19,SW,223,1.1,1.1,70,0.00,CLR,,0.00,WeatherDisplay:10.37,2013-08-16 14:15:00,
2013-08-16 09:20:00,69.3,58.7,30.19,SSW,201,2.0,2.0,69,0.00,CLR,,0.00,WeatherDisplay:10.37,2013-08-16 14:20:00,
2013-08-16 09:25:00,69.6,58.6,30.19,SSW,199,3.5,3.5,68,0.00,CLR,,0.00,WeatherDisplay:10.37,2013-08-16 14:25:00,
2013-08-16 09:30:00,69.9,58.0,30.19,WSW,249,3.5,3.5,66,0.00,CLR,,0.00,WeatherDisplay:10.37,2013-08-16 14:30:00,
2013-08-16 09:35:00,70.3,58.0,30.19,WSW,245,3.5,3.5,65,0.00,CLR,,0.00,WeatherDisplay:10.37,2013-08-16 14:35:00,
2013-08-16 09:40:00,70.9,58.5,30.19,SW,234,3.5,3.5,65,0.00,CLR,,0.00,WeatherDisplay:10.37,2013-08-16 14:40:00,
2013-08-16 09:45:00,71.1,58.3,30.19,SSW,200,4.6,4.6,64,0.00,CLR,,0.00,WeatherDisplay:10.37,2013-08-16 14:45:00,
2013-08-16 09:50:00,71.1,58.3,30.19,SW,225,3.5,3.5,64,0.00,CLR,,0.00,WeatherDisplay:10.37,2013-08-16 14:50:00,
2013-08-16 09:55:00,71.6,57.9,30.19,SW,233,2.3,2.3,62,0.00,CLR,,0.00,WeatherDisplay:10.37,2013-08-16 14:55:00,
2013-08-16 10:00:00,72.1,58.8,30.19,SW,233,1.0,1.0,63,0.00,CLR,,0.00,WeatherDisplay:10.37,2013-08-16 15:00:00,
2013-08-16 10:05:00,72.3,58.5,30.19,SW,234,2.3,2.3,62,0.00,CLR,,0.00,WeatherDisplay:10.37,2013-08-16 15:05:00,
2013-08-16 10:10:00,72.3,57.6,30.19,West,277,2.3,2.3,60,0.00,CLR,,0.00,WeatherDisplay:10.37,2013-08-16 15:10:00,
2013-08-16 10:15:00,72.5,57.8,30.20,WNW,296,2.0,2.0,60,0.00,CLR,,0.00,WeatherDisplay:10.37,2013-08-16 15:15:00,
2013-08-16 10:20:00,72.7,58.9,30.20,NW,321,0.0,0.0,62,0.00,CLR,,0.00,WeatherDisplay:10.37,2013-08-16 15:20:00,
2013-08-16 10:25:00,73.3,59.0,30.20,WSW,243,3.5,3.5,61,0.00,CLR,,0.00,WeatherDisplay:10.37,2013-08-16 15:25:00,
2013-08-16 10:30:00,73.7,58.0,30.20,SSW,207,4.6,4.6,58,0.00,CLR,,0.00,WeatherDisplay:10.37,2013-08-16 15:30:00,
2013-08-16 10:35:00,74.6,58.8,30.20,SSW,207,1.1,0.0,58,0.00,CLR,,0.00,WeatherDisplay:10.37,2013-08-16 15:35:00,
2013-08-16 10:40:00,75.1,58.8,30.20,WNW,294,3.5,0.0,57,0.00,CLR,,0.00,WeatherDisplay:10.37,2013-08-16 15:40:00,
2013-08-16 10:45:00,74.9,58.6,30.20,North,360,4.0,4.0,57,0.00,CLR,,0.00,WeatherDisplay:10.37,2013-08-16 15:45:00,
2013-08-16 10:50:00,74.7,56.9,30.20,SSW,205,5.8,5.8,54,0.00,CLR,,0.00,WeatherDisplay:10.37,2013-08-16 15:50:00,
2013-08-16 10:55:00,74.9,57.1,30.20,SSW,207,1.0,1.0,54,0.00,CLR,,0.00,WeatherDisplay:10.37,2013-08-16 15:55:00,
2013-08-16 11:00:00,75.4,59.1,30.20,SSW,207,0.0,0.1,57,0.00,CLR,,0.00,WeatherDisplay:10.37,2013-08-16 16:00:00,
2013-08-16 11:05:00,75.8,58.0,30.20,South,190,6.0,6.0,54,0.00,CLR,,0.00,WeatherDisplay:10.37,2013-08-16 16:05:00,
2013-08-16 11:10:00,74.9,58.6,30.20,SSW,196,5.8,5.8,57,0.00,CLR,,0.00,WeatherDisplay:10.37,2013-08-16 16:10:00,
2013-08-16 11:15:00,75.4,59.1,30.20,SSW,201,3.5,3.5,57,0.00,CLR,,0.00,WeatherDisplay:10.37,2013-08-16 16:15:00,
2013-08-16 11:20:00,76.1,58.2,30.20,SW,225,1.1,1.9,54,0.00,CLR,,0.00,WeatherDisplay:10.37,2013-08-16 16:20:00,
2013-08-16 11:25:00,75.8,58.0,30.20,SW,217,4.0,4.0,54,0.00,CLR,,0.00,WeatherDisplay:10.37,2013-08-16 16:25:00,
2013-08-16 11:30:00,75.8,58.0,30.20,WSW,252,3.5,3.5,54,0.00,CLR,,0.00,WeatherDisplay:10.37,2013-08-16 16:30:00,
2013-08-16 11:35:00,75.6,58.3,30.20,South,190,3.0,3.0,55,0.00,SCT,,0.00,WeatherDisplay:10.37,2013-08-16 16:35:00,
2013-08-16 11:40:00,75.8,59.0,30.20,South,180,1.0,1.0,56,0.00,SCT,,0.00,WeatherDisplay:10.37,2013-08-16 16:40:00,
2013-08-16 11:45:00,76.1,58.8,30.20,SSW,206,6.9,6.9,55,0.00,SCT,,0.00,WeatherDisplay:10.37,2013-08-16 16:45:00,
2013-08-16 11:50:00,77.4,58.9,30.19,South,189,4.6,4.6,53,0.00,CLR,,0.00,WeatherDisplay:10.37,2013-08-16 16:50:00,
2013-08-16 11:55:00,77.9,59.4,30.19,SSW,197,3.5,3.5,53,0.00,CLR,,0.00,WeatherDisplay:10.37,2013-08-16 16:55:00,
2013-08-16 12:00:00,78.6,57.8,30.19,South,187,3.5,3.5,49,0.00,CLR,,0.00,WeatherDisplay:10.37,2013-08-16 17:00:00,
2013-08-16 12:05:00,77.4,57.9,30.19,SSW,195,3.5,3.5,51,0.00,SCT,,0.00,WeatherDisplay:10.37,2013-08-16 17:05:00,
2013-08-16 12:10:00,77.6,58.0,30.19,SSW,205,1.1,1.1,51,0.00,SCT,,0.00,WeatherDisplay:10.37,2013-08-16 17:10:00,
2013-08-16 12:15:00,77.9,58.3,30.19,SSW,204,4.0,4.0,51,0.00,SCT,,0.00,WeatherDisplay:10.37,2013-08-16 17:15:00,
2013-08-16 12:20:00,77.6,58.0,30.19,WSW,248,1.1,0.0,51,0.00,SCT,,0.00,WeatherDisplay:10.37,2013-08-16 17:20:00,
2013-08-16 12:25:00,77.6,57.5,30.19,SW,214,5.8,5.8,50,0.00,SCT,,0.00,WeatherDisplay:10.37,2013-08-16 17:25:00,
2013-08-16 12:30:00,77.2,57.7,30.19,SW,220,3.5,0.0,51,0.00,SCT,,0.00,WeatherDisplay:10.37,2013-08-16 17:30:00,
2013-08-16 12:35:00,76.8,58.4,30.19,SW,225,1.1,0.0,53,0.00,SCT,,0.00,WeatherDisplay:10.37,2013-08-16 17:35:00,
2013-08-16 12:40:00,77.4,58.4,30.19,WNW,286,0.0,0.1,52,0.00,SCT,,0.00,WeatherDisplay:10.37,2013-08-16 17:40:00,
2013-08-16 12:45:00,78.3,58.1,30.19,South,175,3.5,3.5,50,0.00,SCT,,0.00,WeatherDisplay:10.37,2013-08-16 17:45:00,
2013-08-16 12:50:00,77.4,56.7,30.19,South,184,3.5,3.5,49,0.00,BKN,,0.00,WeatherDisplay:10.37,2013-08-16 17:50:00,
2013-08-16 12:55:00,76.7,57.2,30.19,NW,316,1.1,0.0,51,0.00,BKN,,0.00,WeatherDisplay:10.37,2013-08-16 17:55:00,
2013-08-16 13:00:00,76.1,58.2,30.19,SSW,202,1.1,1.1,54,0.00,BKN,,0.00,WeatherDisplay:10.37,2013-08-16 18:00:00,
2013-08-16 13:05:00,75.8,54.1,30.19,SW,234,4.6,4.6,47,0.00,SCT,,0.00,WeatherDisplay:10.37,2013-08-16 18:05:00,
2013-08-16 13:10:00,76.7,55.5,30.19,SSW,207,6.9,6.9,48,0.00,SCT,,0.00,WeatherDisplay:10.37,2013-08-16 18:10:00,
2013-08-16 13:15:00,77.6,56.9,30.19,SSW,211,2.0,2.0,49,0.00,SCT,,0.00,WeatherDisplay:10.37,2013-08-16 18:15:00,
2013-08-16 13:20:00,78.6,55.5,30.19,SSW,211,1.1,1.1,45,0.00,SCT,,0.00,WeatherDisplay:10.37,2013-08-16 18:20:00,
2013-08-16 13:25:00,79.0,55.8,30.19,SSW,192,3.5,3.5,45,0.00,SCT,,0.00,WeatherDisplay:10.37,2013-08-16 18:25:00,
2013-08-16 13:30:00,78.1,56.2,30.19,SSW,201,2.3,2.4,47,0.00,SCT,,0.00,WeatherDisplay:10.37,2013-08-16 18:30:00,
2013-08-16 13:35:00,77.2,55.4,30.19,WSW,245,3.5,0.0,47,0.00,SCT,,0.00,WeatherDisplay:10.37,2013-08-16 18:35:00,
2013-08-16 13:40:00,77.0,55.2,30.19,WSW,245,0.0,0.0,47,0.00,SCT,,0.00,WeatherDisplay:10.37,2013-08-16 18:40:00,
2013-08-16 13:45:00,76.8,55.6,30.19,WSW,245,1.0,1.0,48,0.00,SCT,,0.00,WeatherDisplay:10.37,2013-08-16 18:45:00,
2013-08-16 13:50:00,76.0,54.3,30.18,SSW,199,4.6,4.6,47,0.00,SCT,,0.00,WeatherDisplay:10.37,2013-08-16 18:50:00,
2013-08-16 13:55:00,75.8,54.1,30.18,SSW,213,3.5,3.5,47,0.00,SCT,,0.00,WeatherDisplay:10.37,2013-08-16 18:55:00,
2013-08-16 14:00:00,75.8,54.1,30.18,SSW,213,3.5,0.0,47,0.00,SCT,,0.00,WeatherDisplay:10.37,2013-08-16 19:00:00,
2013-08-16 14:05:00,75.6,55.1,30.18,SSW,192,3.5,3.5,49,0.00,BKN,,0.00,WeatherDisplay:10.37,2013-08-16 19:05:00,
2013-08-16 14:10:00,75.6,53.4,30.18,SSW,203,5.8,5.8,46,0.00,BKN,,0.00,WeatherDisplay:10.37,2013-08-16 19:10:00,
2013-08-16 14:15:00,75.4,54.9,30.18,SW,219,3.5,0.0,49,0.00,BKN,,0.00,WeatherDisplay:10.37,2013-08-16 19:15:00,
2013-08-16 14:20:00,75.6,55.1,30.18,South,188,3.5,0.0,49,0.00,BKN,,0.00,WeatherDisplay:10.37,2013-08-16 19:20:00,
2013-08-16 14:25:00,76.7,56.7,30.18,South,189,2.3,2.3,50,0.00,BKN,,0.00,WeatherDisplay:10.37,2013-08-16 19:25:00,
2013-08-16 14:30:00,77.2,53.6,30.18,SSW,204,3.5,3.5,44,0.00,BKN,,0.00,WeatherDisplay:10.37,2013-08-16 19:30:00,
2013-08-16 14:35:00,77.4,55.0,30.18,SSW,204,1.1,0.0,46,0.00,SCT,,0.00,WeatherDisplay:10.37,2013-08-16 19:35:00,
2013-08-16 14:40:00,77.4,54.4,30.18,SSW,204,2.3,2.3,45,0.00,SCT,,0.00,WeatherDisplay:10.37,2013-08-16 19:40:00,
2013-08-16 14:45:00,77.2,55.4,30.18,SSW,204,1.0,1.0,47,0.00,SCT,,0.00,WeatherDisplay:10.37,2013-08-16 19:45:00,
2013-08-16 14:50:00,76.7,52.5,30.18,SSW,204,3.5,3.5,43,0.00,CLR,,0.00,WeatherDisplay:10.37,2013-08-16 19:50:00,
2013-08-16 14:55:00,76.5,53.6,30.18,South,191,3.5,3.5,45,0.00,CLR,,0.00,WeatherDisplay:10.37,2013-08-16 19:55:00,
2013-08-16 15:00:00,76.7,55.5,30.18,South,191,1.0,1.0,48,0.00,CLR,,0.00,WeatherDisplay:10.37,2013-08-16 20:00:00,
2013-08-16 15:05:00,76.8,53.2,30.17,South,191,0.0,1.1,44,0.00,CLR,,0.00,WeatherDisplay:10.37,2013-08-16 20:05:00,
2013-08-16 15:10:00,76.7,53.8,30.17,WSW,240,3.5,3.5,45,0.00,CLR,,0.00,WeatherDisplay:10.37,2013-08-16 20:10:00,
2013-08-16 15:15:00,76.3,53.4,30.17,South,169,6.0,6.0,45,0.00,CLR,,0.00,WeatherDisplay:10.37,2013-08-16 20:15:00,
2013-08-16 15:20:00,76.8,53.2,30.17,SSW,196,6.0,6.0,44,0.00,CLR,,0.00,WeatherDisplay:10.37,2013-08-16 20:20:00,
2013-08-16 15:25:00,78.1,52.5,30.17,South,171,5.8,5.8,41,0.00,CLR,,0.00,WeatherDisplay:10.37,2013-08-16 20:25:00,
2013-08-16 15:30:00,78.8,51.0,30.17,South,187,9.2,9.2,38,0.00,CLR,,0.00,WeatherDisplay:10.37,2013-08-16 20:30:00,
2013-08-16 15:35:00,77.9,51.6,30.16,SSW,205,4.6,4.6,40,0.00,SCT,,0.00,WeatherDisplay:10.37,2013-08-16 20:35:00,
2013-08-16 15:40:00,77.6,50.7,30.16,South,178,11.5,11.5,39,0.00,SCT,,0.00,WeatherDisplay:10.37,2013-08-16 20:40:00,
2013-08-16 15:45:00,77.4,51.2,30.16,WSW,257,4.6,4.6,40,0.00,SCT,,0.00,WeatherDisplay:10.37,2013-08-16 20:45:00,
2013-08-16 15:50:00,77.4,55.0,30.16,WSW,257,0.0,0.0,46,0.00,SCT,,0.00,WeatherDisplay:10.37,2013-08-16 20:50:00,
2013-08-16 15:55:00,77.2,53.6,30.16,WSW,257,2.3,0.0,44,0.00,SCT,,0.00,WeatherDisplay:10.37,2013-08-16 20:55:00,
2013-08-16 16:00:00,77.2,53.0,30.16,SSW,198,5.8,5.8,43,0.00,SCT,,0.00,WeatherDisplay:10.37,2013-08-16 21:00:00,
2013-08-16 16:05:00,77.6,52.0,30.16,South,170,3.5,3.5,41,0.00,SCT,,0.00,WeatherDisplay:10.37,2013-08-16 21:05:00,
2013-08-16 16:10:00,78.3,52.0,30.16,South,176,13.8,13.8,40,0.00,SCT,,0.00,WeatherDisplay:10.37,2013-08-16 21:10:00,
2013-08-16 16:15:00,78.3,52.0,30.16,WSW,244,5.8,5.8,40,0.00,SCT,,0.00,WeatherDisplay:10.37,2013-08-16 21:15:00,
2013-08-16 16:20:00,77.9,51.6,30.16,SW,219,1.1,0.0,40,0.00,SCT,,0.00,WeatherDisplay:10.37,2013-08-16 21:20:00,
2013-08-16 16:25:00,78.5,52.8,30.16,SW,219,1.1,0.0,41,0.00,SCT,,0.00,WeatherDisplay:10.37,2013-08-16 21:25:00,
2013-08-16 16:30:00,79.0,49.8,30.16,South,191,6.0,6.0,36,0.00,SCT,,0.00,WeatherDisplay:10.37,2013-08-16 21:30:00,
2013-08-16 16:35:00,78.8,51.0,30.16,SSW,207,5.0,5.0,38,0.00,SCT,,0.00,WeatherDisplay:10.37,2013-08-16 21:35:00,
2013-08-16 16:40:00,79.0,50.5,30.16,SSW,200,2.3,0.0,37,0.00,SCT,,0.00,WeatherDisplay:10.37,2013-08-16 21:40:00,
2013-08-16 16:45:00,79.9,51.3,30.16,SSW,196,9.0,9.0,37,0.00,SCT,,0.00,WeatherDisplay:10.37,2013-08-16 21:45:00,
2013-08-16 16:50:00,80.1,51.5,30.16,South,188,4.6,4.6,37,0.00,SCT,,0.00,WeatherDisplay:10.37,2013-08-16 21:50:00,
2013-08-16 16:55:00,80.7,51.3,30.16,South,182,5.0,6.7,36,0.00,SCT,,0.00,WeatherDisplay:10.37,2013-08-16 21:55:00,
2013-08-16 17:00:00,79.2,50.7,30.16,SSW,202,10.4,10.4,37,0.00,SCT,,0.00,WeatherDisplay:10.37,2013-08-16 22:00:00,
2013-08-16 17:05:00,79.2,54.1,30.16,West,265,3.0,3.0,42,0.00,CLR,,0.00,WeatherDisplay:10.37,2013-08-16 22:05:00,
2013-08-16 17:10:00,79.9,52.7,30.16,SW,224,3.5,3.5,39,0.00,CLR,,0.00,WeatherDisplay:10.37,2013-08-16 22:10:00,
2013-08-16 17:15:00,80.1,52.2,30.16,SSW,206,2.0,2.9,38,0.00,CLR,,0.00,WeatherDisplay:10.37,2013-08-16 22:15:00,
2013-08-16 17:20:00,80.1,51.5,30.16,SSW,211,3.5,3.5,37,0.00,CLR,,0.00,WeatherDisplay:10.37,2013-08-16 22:20:00,
2013-08-16 17:25:00,80.3,53.1,30.16,SSW,202,1.1,1.1,39,0.00,CLR,,0.00,WeatherDisplay:10.37,2013-08-16 22:25:00,
2013-08-16 17:30:00,79.9,51.3,30.16,South,177,6.0,6.0,37,0.00,CLR,,0.00,WeatherDisplay:10.37,2013-08-16 22:30:00,
2013-08-16 17:35:00,79.4,51.6,30.16,South,182,5.8,6.6,38,0.00,CLR,,0.00,WeatherDisplay:10.37,2013-08-16 22:35:00,
2013-08-16 17:40:00,77.9,52.3,30.16,SSW,199,6.9,6.9,41,0.00,CLR,,0.00,WeatherDisplay:10.37,2013-08-16 22:40:00,
2013-08-16 17:45:00,77.2,52.3,30.16,SSW,209,3.5,3.5,42,0.00,CLR,,0.00,WeatherDisplay:10.37,2013-08-16 22:45:00,
2013-08-16 17:50:00,77.2,52.3,30.16,South,186,4.6,4.6,42,0.00,CLR,,0.00,WeatherDisplay:10.37,2013-08-16 22:50:00,
2013-08-16 17:55:00,77.9,51.6,30.16,SSW,208,3.5,3.5,40,0.00,CLR,,0.00,WeatherDisplay:10.37,2013-08-16 22:55:00,
2013-08-16 18:00:00,77.9,52.3,30.16,SW,221,5.8,5.8,41,0.00,CLR,,0.00,WeatherDisplay:10.37,2013-08-16 23:00:00,
2013-08-16 18:05:00,77.9,53.0,30.16,SSW,194,5.8,5.8,42,0.00,CLR,,0.00,WeatherDisplay:10.37,2013-08-16 23:05:00,
2013-08-16 18:10:00,77.4,52.5,30.16,SSW,200,9.2,9.2,42,0.00,CLR,,0.00,WeatherDisplay:10.37,2013-08-16 23:10:00,
2013-08-16 18:15:00,77.4,53.8,30.16,SSW,195,5.0,5.0,44,0.00,CLR,,0.00,WeatherDisplay:10.37,2013-08-16 23:15:00,
2013-08-16 18:20:00,77.7,52.8,30.16,South,185,2.3,0.0,42,0.00,CLR,,0.00,WeatherDisplay:10.37,2013-08-16 23:20:00,
2013-08-16 18:25:00,78.5,53.5,30.16,South,182,1.1,1.1,42,0.00,CLR,,0.00,WeatherDisplay:10.37,2013-08-16 23:25:00,
2013-08-16 18:30:00,78.3,52.7,30.16,South,190,6.9,6.9,41,0.00,CLR,,0.00,WeatherDisplay:10.37,2013-08-16 23:30:00,
2013-08-16 18:35:00,77.6,52.0,30.16,South,190,6.0,6.0,41,0.00,SCT,,0.00,WeatherDisplay:10.37,2013-08-16 23:35:00,
2013-08-16 18:40:00,77.0,52.1,30.16,SW,222,4.6,4.6,42,0.00,SCT,,0.00,WeatherDisplay:10.37,2013-08-16 23:40:00,
2013-08-16 18:45:00,76.7,51.2,30.16,South,190,3.5,3.5,41,0.00,SCT,,0.00,WeatherDisplay:10.37,2013-08-16 23:45:00,
2013-08-16 18:50:00,76.3,51.5,30.16,SW,225,6.9,6.9,42,0.00,CLR,,0.00,WeatherDisplay:10.37,2013-08-16 23:50:00,
2013-08-16 18:55:00,75.6,51.5,30.16,SSW,193,4.6,4.6,43,0.00,CLR,,0.00,WeatherDisplay:10.37,2013-08-16 23:55:00,
2013-08-16 19:00:00,75.4,52.6,30.16,SSW,193,6.9,6.9,45,0.00,CLR,,0.00,WeatherDisplay:10.37,2013-08-17 00:00:00,
2013-08-16 19:05:00,75.1,52.9,30.16,SSW,202,4.6,4.6,46,0.00,CLR,,0.00,WeatherDisplay:10.37,2013-08-17 00:05:00,
2013-08-16 19:10:00,74.9,53.3,30.16,SSW,202,5.0,5.0,47,0.00,CLR,,0.00,WeatherDisplay:10.37,2013-08-17 00:10:00,
2013-08-16 19:15:00,74.6,53.6,30.16,SW,229,2.3,2.7,48,0.00,CLR,,0.00,WeatherDisplay:10.37,2013-08-17 00:15:00,
2013-08-16 19:20:00,74.4,53.4,30.16,SW,229,1.0,1.0,48,0.00,CLR,,0.00,WeatherDisplay:10.37,2013-08-17 00:20:00,
2013-08-16 19:25:00,74.2,54.4,30.16,SW,229,0.0,0.0,50,0.00,CLR,,0.00,WeatherDisplay:10.37,2013-08-17 00:25:00,
2013-08-16 19:30:00,74.0,54.2,30.16,SW,229,1.1,0.0,50,0.00,CLR,,0.00,WeatherDisplay:10.37,2013-08-17 00:30:00,
2013-08-16 19:35:00,73.9,54.1,30.16,SW,229,2.3,2.3,50,0.00,CLR,,0.00,WeatherDisplay:10.37,2013-08-17 00:35:00,
2013-08-16 19:40:00,73.7,54.4,30.16,SW,229,2.3,0.0,51,0.00,CLR,,0.00,WeatherDisplay:10.37,2013-08-17 00:40:00,
2013-08-16 19:45:00,73.3,54.6,30.16,SW,229,3.5,3.5,52,0.00,CLR,,0.00,WeatherDisplay:10.37,2013-08-17 00:45:00,
2013-08-16 19:50:00,73.0,54.3,30.16,SW,229,0.0,0.0,52,0.00,CLR,,0.00,WeatherDisplay:10.37,2013-08-17 00:50:00,
2013-08-16 19:55:00,72.8,54.7,30.16,SW,230,0.0,0.0,53,0.00,CLR,,0.00,WeatherDisplay:10.37,2013-08-17 00:55:00,
2013-08-16 20:00:00,72.5,54.9,30.16,SW,229,0.0,0.0,54,0.00,CLR,,0.00,WeatherDisplay:10.37,2013-08-17 01:00:00,
2013-08-16 20:05:00,72.1,54.5,30.16,SW,229,0.0,0.0,54,0.00,CLR,,0.00,WeatherDisplay:10.37,2013-08-17 01:05:00,
2013-08-16 20:10:00,71.6,54.6,30.16,SW,229,0.0,0.0,55,0.00,CLR,,0.00,WeatherDisplay:10.37,2013-08-17 01:10:00,
2013-08-16 20:15:00,71.1,55.6,30.16,SW,229,0.0,0.0,58,0.00,CLR,,0.00,WeatherDisplay:10.37,2013-08-17 01:15:00,
2013-08-16 20:20:00,70.6,55.6,30.16,SW,229,0.0,0.0,59,0.00,CLR,,0.00,WeatherDisplay:10.37,2013-08-17 01:20:00,
2013-08-16 20:25:00,69.9,55.8,30.16,SW,229,0.0,0.0,61,0.00,CLR,,0.00,WeatherDisplay:10.37,2013-08-17 01:25:00,
2013-08-16 20:30:00,69.3,55.7,30.16,SW,229,0.0,0.0,62,0.00,CLR,,0.00,WeatherDisplay:10.37,2013-08-17 01:30:00,
2013-08-16 20:35:00,68.6,55.9,30.16,SW,229,0.0,0.0,64,0.00,CLR,,0.00,WeatherDisplay:10.37,2013-08-17 01:35:00,
2013-08-16 20:40:00,68.1,55.9,30.16,SW,229,0.0,0.0,65,0.00,CLR,,0.00,WeatherDisplay:10.37,2013-08-17 01:40:00,
2013-08-16 20:45:00,67.6,55.8,30.16,SW,229,0.0,0.0,66,0.00,CLR,,0.00,WeatherDisplay:10.37,2013-08-17 01:45:00,
2013-08-16 20:50:00,67.3,56.0,30.16,SW,229,0.0,0.0,67,0.00,CLR,,0.00,WeatherDisplay:10.37,2013-08-17 01:50:00,
2013-08-16 20:55:00,66.9,56.0,30.16,SW,230,0.0,0.0,68,0.00,CLR,,0.00,WeatherDisplay:10.37,2013-08-17 01:55:00,
2013-08-16 21:00:00,66.4,55.9,30.16,SW,230,0.0,0.0,69,0.00,CLR,,0.00,WeatherDisplay:10.37,2013-08-17 02:00:00,
2013-08-16 21:05:00,66.1,56.0,30.16,SW,229,0.0,0.0,70,0.00,CLR,,0.00,WeatherDisplay:10.37,2013-08-17 02:05:00,
2013-08-16 21:10:00,65.8,56.1,30.16,SW,230,0.0,0.0,71,0.00,CLR,,0.00,WeatherDisplay:10.37,2013-08-17 02:10:00,
2013-08-16 21:16:00,65.5,55.8,30.17,SW,229,0.0,0.0,71,0.00,CLR,,0.00,WeatherDisplay:10.37,2013-08-17 02:16:00,
2013-08-16 21:21:00,65.2,55.9,30.17,SW,230,0.0,0.0,72,0.00,CLR,,0.00,WeatherDisplay:10.37,2013-08-17 02:21:00,
2013-08-16 21:25:00,65.0,56.1,30.17,SW,229,0.0,0.0,73,0.00,CLR,,0.00,WeatherDisplay:10.37,2013-08-17 02:25:00,
2013-08-16 21:26:00,65.0,56.1,30.17,SW,229,0.0,0.0,73,0.00,CLR,,0.00,WeatherDisplay:10.37,2013-08-17 02:26:00,
2013-08-16 21:31:00,65.0,56.1,30.17,SW,229,0.0,0.0,73,0.00,CLR,,0.00,WeatherDisplay:10.37,2013-08-17 02:31:00,
2013-08-16 22:23:00,65.0,56.1,30.17,SW,229,0.0,0.0,73,0.00,CLR,,0.00,WeatherDisplay:10.37,2013-08-17 03:23:00,
2013-08-16 22:28:00,65.0,56.1,30.17,SW,229,0.0,0.0,73,0.00,CLR,,0.00,WeatherDisplay:10.37,2013-08-17 03:28:00,
2013-08-16 23:55:00,65.0,56.1,30.17,SW,229,0.0,0.0,73,0.00,CLR,,0.00,WeatherDisplay:10.37,2013-08-17 04:55:00,